Location: Branche des Alpilles
(43.6087°N, 4.6976°E)
Time: 18:01:27
(UTC+00:00)

YAOGAN 1 - Pass Details

Date: 30 November 2020
Orbit: 618 x 620 km, 97.9° (Epoch: 23 January)

Event Time Altitude Azimuth Distance (km) Brightness Sun altitude
Exits shadow 16:51:50 10° 60° (ENE) 1,977 4.5 -8.3°
Maximum altitude 16:51:55 10° 59° (ENE) 1,976 4.5 -8.3°
Drops below altitude 10° 16:52:32 10° 51° (NE) 1,995 4.6 -8.4°
Sets 16:56:50 0° 10° (N) 2,909 5.7 -9.1°
